BRITE-PL2 (HEWELIUSZ)

Last updated on Sun Apr 12 2026 00:03:41 GMT+0000 (Coordinated Universal Time)

1 40119U 14049B 26101.28439362 .00001014 00000+0 99678-4 0 9998 2 40119 97.9008 212.8116 0013412 336.7294 23.3317 14.94352461631453
UTC large
Height (km)
Speed (km/s)
/
Latitude / Longitude
Inclination (degrees)
Orbital Period (minutes)
Azimuth
Elevation
Range (km)
Doppler Factor

Next 0 passes for location: London (51.5072 / 0.1276)

Sorry there are no passes over London.
BRITE-PL2 (HEWELIUSZ)